| time (UTC) | temp F | wind direction | speed MPH | gust MPH | rain 1hr in | rain 24hr in | rain mn in | humidity % | barometer mb |
| 20260510185025 | 86 | 0.0 | 4.0 | 0.00 | 0.00 | 0.00 | 37 | 1011.0 | |
| 20260510184024 | 87 | 0.0 | 2.0 | 0.00 | 0.00 | 0.00 | 36 | 1011.1 | |
| 20260510183025 | 88 | 0.0 | 1.0 | 0.00 | 0.00 | 0.00 | 33 | 1011.0 | |
| 20260510182025 | 87 | 0.0 | 1.0 | 0.00 | 0.00 | 0.00 | 38 | 1011.1 | |
| 20260510181025 | 87 | 0.0 | 2.0 | 0.00 | 0.00 | 0.00 | 31 | 1011.0 | |
| 20260510180025 | 87 | 0.0 | 1.0 | 0.00 | 0.00 | 0.00 | 34 | 1011.3 | |
| 20260510175025 | 87 | 0.0 | 2.0 | 0.00 | 0.00 | 0.00 | 34 | 1011.4 | |
| 20260510174025 | 87 | 0.0 | 1.0 | 0.00 | 0.00 | 0.00 | 34 | 1011.4 | |
| 20260510173025 | 86 | 0.0 | 1.0 | 0.00 | 0.00 | 0.00 | 36 | 1011.4 | |
| 20260510172045 | 87 | 0.0 | 1.0 | 0.00 | 0.00 | 0.00 | 37 | 1011.3 | |
| 20260510171026 | 85 | 0.0 | 1.0 | 0.00 | 0.00 | 0.00 | 39 | 1011.5 | |
| 20260510170025 | 85 | 0 | 1.0 | 3.0 | 0.00 | 0.00 | 0.00 | 36 | 1011.7 |
| 20260510165025 | 85 | 0.0 | 2.0 | 0.00 | 0.00 | 0.00 | 37 | 1011.7 | |
| 20260510164025 | 85 | 0.0 | 4.0 | 0.00 | 0.00 | 0.00 | 37 | 1011.8 | |
| 20260510163025 | 86 | 0.0 | 2.0 | 0.00 | 0.00 | 0.00 | 39 | 1011.9 | |
| 20260510162045 | 85 | 0.0 | 4.0 | 0.00 | 0.00 | 0.00 | 38 | 1011.9 | |
| 20260510161025 | 84 | 0 | 1.0 | 7.0 | 0.00 | 0.00 | 0.00 | 40 | 1012.0 |
| 20260510160025 | 83 | 0.0 | 1.0 | 0.00 | 0.00 | 0.00 | 41 | 1012.2 | |
| 20260510155024 | 83 | 0.0 | 2.0 | 0.00 | 0.00 | 0.00 | 42 | 1012.2 | |
| 20260510154025 | 83 | 0.0 | 1.0 | 0.00 | 0.00 | 0.00 | 42 | 1012.3 | |
| 20260510153025 | 82 | 0.0 | 2.0 | 0.00 | 0.00 | 0.00 | 43 | 1012.4 | |
| 20260510152025 | 81 | 0 | 1.0 | 4.0 | 0.00 | 0.00 | 0.00 | 41 | 1012.3 |
| 20260510151045 | 80 | 0.0 | 1.0 | 0.00 | 0.00 | 0.00 | 46 | 1012.3 | |
| 20260510150025 | 79 | 0 | 1.0 | 4.0 | 0.00 | 0.00 | 0.00 | 47 | 1012.4 |
| 20260510145025 | 79 | 0.0 | 2.0 | 0.00 | 0.00 | 0.00 | 46 | 1012.3 | |
| 20260510144024 | 79 | 0.0 | 2.0 | 0.00 | 0.00 | 0.00 | 48 | 1012.2 | |
| 20260510143025 | 77 | 0.0 | 2.0 | 0.00 | 0.00 | 0.00 | 51 | 1012.2 | |
| 20260510142025 | 76 | 0.0 | 3.0 | 0.00 | 0.00 | 0.00 | 53 | 1012.1 | |
| 20260510141024 | 75 | 0.0 | 1.0 | 0.00 | 0.00 | 0.00 | 54 | 1012.1 | |
| 20260510140024 | 74 | 0 | 1.0 | 3.0 | 0.00 | 0.00 | 0.00 | 53 | 1012.0 |
| 20260510135025 | 74 | 0.0 | 2.0 | 0.00 | 0.00 | 0.00 | 62 | 1012.1 | |
| 20260510134045 | 72 | 0.0 | 1.0 | 0.00 | 0.00 | 0.00 | 66 | 1012.1 | |
| 20260510133024 | 69 | 0.0 | 1.0 | 0.00 | 0.00 | 0.00 | 70 | 1012.0 | |
| 20260510132045 | 67 | 0.0 | 1.0 | 0.00 | 0.00 | 0.00 | 79 | 1012.0 | |
| 20260510131024 | 63 | 0.0 | 0.0 | 0.00 | 0.00 | 0.00 | 86 | 1011.9 | |
| 20260510130026 | 61 | 0.0 | 1.0 | 0.00 | 0.00 | 0.00 | 82 | 1012.0 | |
| 20260510125025 | 59 | 0.0 | 0.0 | 0.00 | 0.00 | 0.00 | 17 | 1012.2 | |
| 20260510124027 | 58 | 0.0 | 1.0 | 0.00 | 0.00 | 0.00 | 1 | 1012.1 | |
| 20260510123025 | 57 | 0.0 | 0.0 | 0.00 | 0.00 | 0.00 | 1 | 1012.0 | |
| 20260510122026 | 56 | 0.0 | 0.0 | 0.00 | 0.00 | 0.00 | 1 | 1011.7 | |
| 20260510121027 | 55 | 0.0 | 0.0 | 0.00 | 0.00 | 0.00 | 1 | 1011.7 | |
| 20260510120026 | 54 | 0.0 | 0.0 | 0.00 | 0.00 | 0.00 | 1 | 1011.7 | |
| 20260510115026 | 53 | 0.0 | 0.0 | 0.00 | 0.00 | 0.00 | 1 | 1011.5 | |
| 20260510114024 | 52 | 0.0 | 0.0 | 0.00 | 0.00 | 0.00 | 4 | 1011.4 | |
| 20260510113026 | 51 | 0.0 | 0.0 | 0.00 | 0.00 | 0.00 | 7 | 1011.4 | |
| 20260510112026 | 51 | 0.0 | 0.0 | 0.00 | 0.00 | 0.00 | 8 | 1011.4 | |
| 20260510111525 | 0 | 0.0 | 0.0 | 0.00 | 0.00 | 0.00 | |||
| 20260510110525 | 0 | 0.0 | 0.0 | 0.00 | 0.00 | 0.00 | |||
| 20260510110015 | 0 | 0.0 | 0.0 | 0.00 | 0.00 | 0.00 | |||
| 20260510105614 | 0 | 0.0 | 0.0 | 0.00 | 0.00 | 0.00 | |||
| 20260510105026 | 0 | 0.0 | 0.0 | 0.00 | 0.00 | 0.00 | |||
| 20260510104025 | 0 | 0.0 | 0.0 | 0.00 | 0.00 | 0.00 | |||
| 20260510103539 | 0 | 0.0 | 0.0 | 0.00 | 0.00 | 0.00 | |||
| 20260510103019 | 0 | 0.0 | 0.0 | 0.00 | 0.00 | 0.00 | |||
| 20260510102526 | 0 | 0.0 | 0.0 | 0.00 | 0.00 | 0.00 | |||
| 20260510101525 | 0 | 0.0 | 0.0 | 0.00 | 0.00 | 0.00 | |||
| 20260510101040 | 0 | 0.0 | 0.0 | 0.00 | 0.00 | 0.00 | |||
| 20260510100519 | 0 | 0.0 | 0.0 | 0.00 | 0.00 | 0.00 | |||
| 20260510100025 | 0 | 0.0 | 0.0 | 0.00 | 0.00 | 0.00 | |||
| 20260510095025 | 0 | 0.0 | 0.0 | 0.00 | 0.00 | 0.00 | |||
| 20260510094545 | 0 | 0.0 | 0.0 | 0.00 | 0.00 | 0.00 | |||
| 20260510094041 | 0 | 0.0 | 0.0 | 0.00 | 0.00 | 0.00 | |||
| 20260510093525 | 0 | 0.0 | 0.0 | 0.00 | 0.00 | 0.00 | |||
| 20260510092556 | 0 | 0.0 | 0.0 | 0.00 | 0.00 | 0.00 | |||
| 20260510092045 | 0 | 0.0 | 0.0 | 0.00 | 0.00 | 0.00 | |||
| 20260510091523 | 0 | 0.0 | 0.0 | 0.00 | 0.00 | 0.00 | |||
| 20260510091025 | 0 | 0.0 | 0.0 | 0.00 | 0.00 | 0.00 | |||
| 20260510090025 | 0 | 0.0 | 0.0 | 0.00 | 0.00 | 0.00 | |||
| 20260510085616 | 0 | 0.0 | 0.0 | 0.00 | 0.00 | 0.00 | 31 | ||
| 20260510085033 | 51 | 0.0 | 0.0 | 0.00 | 0.00 | 0.00 | 31 | 1009.9 | |
| 20260510084527 | 52 | 0.0 | 0.0 | 0.00 | 0.00 | 0.00 | 30 | 1009.8 | |
| 20260510083526 | 51 | 0.0 | 0.0 | 0.00 | 0.00 | 0.00 | 35 | 1009.9 | |
| 20260510082526 | 52 | 0.0 | 0.0 | 0.00 | 0.00 | 0.00 | 38 | 1009.8 | |
| 20260510081526 | 52 | 0.0 | 0.0 | 0.00 | 0.00 | 0.00 | 37 | 1009.7 | |
| 20260510080527 | 52 | 0.0 | 0.0 | 0.00 | 0.00 | 0.00 | 45 | 1009.5 | |
| 20260510075526 | 52 | 0.0 | 0.0 | 0.00 | 0.00 | 0.00 | 42 | 1009.4 | |
| 20260510074525 | 52 | 0.0 | 0.0 | 0.00 | 0.00 | 0.00 | 49 | 1009.4 | |
| 20260510073527 | 53 | 0.0 | 0.0 | 0.00 | 0.00 | 0.00 | 49 | 1009.1 | |
| 20260510072526 | 53 | 0.0 | 0.0 | 0.00 | 0.00 | 0.00 | 49 | 1009.1 | |
| 20260510071525 | 53 | 0.0 | 0.0 | 0.00 | 0.00 | 0.00 | 54 | 1009.1 | |
| 20260510070526 | 53 | 0.0 | 0.0 | 0.00 | 0.00 | 0.00 | 63 | 1009.2 | |
| 20260510065526 | 53 | 0.0 | 0.0 | 0.00 | 0.00 | 0.00 | 65 | 1009.1 | |
| 20260510064526 | 53 | 0.0 | 0.0 | 0.00 | 0.00 | 0.00 | 69 | 1009.0 | |
| 20260510063526 | 53 | 0.0 | 0.0 | 0.00 | 0.00 | 0.00 | 73 | 1009.0 | |
| 20260510062525 | 54 | 0.0 | 0.0 | 0.00 | 0.00 | 0.00 | 73 | 1009.1 | |
| 20260510061525 | 54 | 0.0 | 0.0 | 0.00 | 0.00 | 0.00 | 78 | 1009.0 | |
| 20260510060525 | 54 | 0.0 | 0.0 | 0.00 | 0.00 | 0.00 | 78 | 1008.9 | |
| 20260510055526 | 54 | 0.0 | 0.0 | 0.00 | 0.00 | 0.00 | 78 | 1008.9 | |
| 20260510054526 | 55 | 0.0 | 0.0 | 0.00 | 0.00 | 0.00 | 83 | 1009.0 | |
| 20260510053526 | 55 | 0.0 | 0.0 | 0.00 | 0.00 | 0.00 | 84 | 1009.0 | |
| 20260510052606 | 55 | 0.0 | 0.0 | 0.00 | 0.00 | 0.00 | 84 | 1009.0 | |
| 20260510051526 | 55 | 0.0 | 0.0 | 0.00 | 0.00 | 0.00 | 85 | 1009.0 | |
| 20260510050526 | 56 | 0.0 | 0.0 | 0.00 | 0.00 | 0.00 | 86 | 1008.9 | |
| 20260510045526 | 56 | 0.0 | 0.0 | 0.00 | 0.00 | 0.00 | 86 | 1008.9 | |
| 20260510044626 | 56 | 0.0 | 0.0 | 0.00 | 0.00 | 0.00 | 86 | 1009.0 | |
| 20260510043546 | 56 | 0.0 | 0.0 | 0.00 | 0.00 | 0.00 | 86 | 1008.8 | |
| 20260510042526 | 57 | 0.0 | 0.0 | 0.00 | 0.00 | 0.00 | 86 | 1008.8 | |
| 20260510041525 | 57 | 0.0 | 0.0 | 0.00 | 0.00 | 0.00 | 86 | 1008.9 | |
| 20260510040535 | 57 | 0.0 | 0.0 | 0.00 | 0.00 | 0.00 | 85 | 1008.8 | |
| 20260510035526 | 57 | 0.0 | 0.0 | 0.00 | 0.00 | 0.00 | 85 | 1008.7 | |
| 20260510034526 | 57 | 0.0 | 0.0 | 0.00 | 0.00 | 0.00 | 85 | 1008.7 | |
| 20260510033606 | 58 | 0.0 | 0.0 | 0.00 | 0.00 | 0.00 | 84 | 1008.6 | |
| 20260510032546 | 58 | 0.0 | 0.0 | 0.00 | 0.00 | 0.00 | 84 | 1008.6 | |
| 20260510031526 | 58 | 0.0 | 0.0 | 0.00 | 0.00 | 0.00 | 84 | 1008.5 | |
| 20260510030526 | 58 | 0.0 | 0.0 | 0.00 | 0.00 | 0.00 | 83 | 1008.5 | |
| 20260510025526 | 58 | 0.0 | 0.0 | 0.00 | 0.00 | 0.00 | 83 | 1008.4 | |
| 20260510024546 | 58 | 0.0 | 0.0 | 0.00 | 0.00 | 0.00 | 83 | 1008.2 | |
| 20260510023525 | 59 | 0.0 | 0.0 | 0.00 | 0.00 | 0.00 | 82 | 1008.1 | |
| 20260510022525 | 59 | 0.0 | 0.0 | 0.00 | 0.00 | 0.00 | 82 | 1008.1 | |
| 20260510021525 | 59 | 0.0 | 0.0 | 0.00 | 0.00 | 0.00 | 81 | 1008.0 | |
| 20260510020526 | 60 | 0.0 | 0.0 | 0.00 | 0.00 | 0.00 | 80 | 1007.9 | |
| 20260510015526 | 60 | 0.0 | 0.0 | 0.00 | 0.00 | 0.00 | 79 | 1007.9 | |
| 20260510014546 | 61 | 0.0 | 0.0 | 0.00 | 0.00 | 0.00 | 78 | 1007.7 | |
| 20260510013546 | 61 | 0.0 | 0.0 | 0.00 | 0.00 | 0.00 | 78 | 1007.5 | |
| 20260510012525 | 62 | 0.0 | 0.0 | 0.00 | 0.00 | 0.00 | 76 | 1007.4 | |
| 20260510011526 | 62 | 0.0 | 0.0 | 0.00 | 0.00 | 0.00 | 75 | 1007.3 | |
| 20260510010526 | 63 | 0.0 | 0.0 | 0.00 | 0.00 | 0.00 | 74 | 1007.3 | |
| 20260510005526 | 64 | 0.0 | 0.0 | 0.00 | 0.00 | 0.00 | 72 | 1007.2 | |
| 20260510004606 | 65 | 0.0 | 0.0 | 0.00 | 0.00 | 0.00 | 70 | 1006.9 | |
| 20260510003551 | 66 | 0.0 | 0.0 | 0.00 | 0.00 | 0.00 | 68 | 1006.9 | |
| 20260510002525 | 67 | 0.0 | 0.0 | 0.00 | 0.00 | 0.00 | 65 | 1006.7 | |
| 20260510001525 | 68 | 0.0 | 0.0 | 0.00 | 0.00 | 0.00 | 63 | 1006.7 | |
| 20260510000525 | 69 | 0.0 | 0.0 | 0.00 | 0.00 | 0.00 | 62 | 1006.7 | |
| 20260509235525 | 70 | 0.0 | 0.0 | 0.00 | 0.00 | 0.00 | 61 | 1006.5 | |
| 20260509234525 | 71 | 0.0 | 0.0 | 0.00 | 0.00 | 0.00 | 58 | 1006.4 | |
| 20260509233526 | 72 | 0.0 | 1.0 | 0.00 | 0.00 | 0.00 | 55 | 1006.4 | |
| 20260509232525 | 73 | 0.0 | 1.0 | 0.00 | 0.00 | 0.00 | 54 | 1006.4 | |
| 20260509231525 | 74 | 0.0 | 1.0 | 0.00 | 0.00 | 0.00 | 53 | 1006.4 | |
| 20260509230525 | 74 | 0.0 | 1.0 | 0.00 | 0.00 | 0.00 | 51 | 1006.4 | |
| 20260509225525 | 74 | 0.0 | 1.0 | 0.00 | 0.00 | 0.00 | 52 | 1006.4 | |
| 20260509224525 | 74 | 0.0 | 3.0 | 0.00 | 0.00 | 0.00 | 51 | 1006.2 | |
| 20260509223545 | 75 | 0.0 | 3.0 | 0.00 | 0.00 | 0.00 | 51 | 1006.3 | |
| 20260509222525 | 74 | 0.0 | 3.0 | 0.00 | 0.00 | 0.00 | 50 | 1006.4 | |
| 20260509221525 | 74 | 0.0 | 1.0 | 0.00 | 0.00 | 0.00 | 52 | 1006.4 | |
| 20260509220531 | 74 | 0.0 | 1.0 | 0.00 | 0.00 | 0.00 | 51 | 1006.4 | |
| 20260509215525 | 74 | 0.0 | 1.0 | 0.00 | 0.00 | 0.00 | 51 | 1006.4 | |
| 20260509214525 | 75 | 0.0 | 3.0 | 0.00 | 0.00 | 0.00 | 51 | 1006.5 | |
| 20260509213525 | 75 | 0.0 | 1.0 | 0.00 | 0.00 | 0.00 | 51 | 1006.5 | |
| 20260509212546 | 75 | 0.0 | 3.0 | 0.00 | 0.00 | 0.00 | 50 | 1006.3 | |
| 20260509211525 | 75 | 0 | 1.0 | 5.0 | 0.00 | 0.00 | 0.00 | 49 | 1006.3 |
| 20260509210525 | 76 | 0 | 1.0 | 5.0 | 0.00 | 0.00 | 0.00 | 50 | 1006.1 |
| 20260509205525 | 76 | 0 | 1.0 | 5.0 | 0.00 | 0.00 | 0.00 | 51 | 1006.2 |
| 20260509204525 | 76 | 0 | 1.0 | 5.0 | 0.00 | 0.00 | 0.00 | 50 | 1006.2 |
| 20260509203525 | 77 | 0 | 1.0 | 4.0 | 0.00 | 0.00 | 0.00 | 48 | 1006.1 |
| 20260509202545 | 77 | 0.0 | 2.0 | 0.00 | 0.00 | 0.00 | 50 | 1006.1 | |
| 20260509201526 | 77 | 0.0 | 1.0 | 0.00 | 0.00 | 0.00 | 51 | 1006.3 | |
| 20260509200526 | 78 | 0.0 | 3.0 | 0.00 | 0.00 | 0.00 | 51 | 1006.6 | |
| 20260509195525 | 77 | 0.0 | 2.0 | 0.00 | 0.00 | 0.00 | 50 | 1006.6 | |
| 20260509194605 | 77 | 0.0 | 2.0 | 0.00 | 0.00 | 0.00 | 52 | 1006.7 | |
| 20260509193525 | 76 | 0.0 | 3.0 | 0.00 | 0.00 | 0.00 | 54 | 1006.9 | |
| 20260509192525 | 74 | 0.0 | 3.0 | 0.00 | 0.00 | 0.00 | 57 | 1007.2 | |
| 20260509191525 | 73 | 0.0 | 1.0 | 0.00 | 0.00 | 0.00 | 59 | 1007.4 | |
| 20260509190605 | 74 | 0.0 | 1.0 | 0.00 | 0.00 | 0.00 | 56 | 1007.5 |